EHI
6 6 6 6 4 2 1 0 0 0 0 0 0 1 2 2 3 3 3 5 9 13 16 16 15 14 13 12 12 12 9 7 6 6 6 4 1 0 0 0 0 0 0
6 6 6 5 4 3 2 0 0 0 0 0 0 0 1 1 3 3 3 4 7 10 13 15 16 15 13 13 13 12 10 8 6 6 6 5 2 1 1 0 0 0 0
4 4 4 4 4 3 2 0 0 0 0 0 0 0 0 1 2 3 3 3 4 6 10 13 15 14 14 14 14 13 11 9 6 5 5 6 5 3 2 1 1 0 0
4 4 3 3 3 3 2 1 0 0 0 0 0 0 0 0 1 2 3 3 3 4 6 9 12 12 13 14 15 14 11 9 7 5 5 6 6 4 3 3 2 1 0
7 6 4 2 1 2 2 1 0 0 0 0 0 0 0 0 0 1 2 3 3 3 3 5 7 9 10 13 14 14 12 10 10 9 8 8 6 4 3 2 2 1 0
9 8 5 2 1 1 1 1 1 0 1 1 1 0 0 0 0 0 1 1 2 3 2 3 4 5 7 10 13 15 15 14 14 13 12 10 6 3 1 1 1 0 0
8 7 6 4 2 1 1 2 1 1 1 2 2 1 0 0 0 0 0 0 1 2 2 2 2 3 3 6 10 14 16 17 17 16 15 12 7 2 0 0 0 0 0
7 7 6 6 5 3 2 1 1 0 1 2 2 1 0 0 0 0 0 0 0 1 1 1 1 1 1 2 5 9 13 15 15 16 15 13 8 4 1 1 1 0 0
9 8 7 6 6 6 4 2 0 0 0 1 2 2 1 0 0 0 0 0 0 0 0 0 0 1 1 1 2 4 7 8 10 12 13 12 9 6 3 2 2 1 0
11 9 8 7 6 6 5 3 1 0 0 0 1 2 2 1 1 1 0 0 0 0 0 0 0 1 2 2 2 3 3 3 4 6 9 10 9 7 5 3 2 1 1
9 10 9 7 7 6 6 4 2 1 0 0 0 1 2 2 2 2 1 0 0 0 0 0 0 1 2 2 3 3 3 1 1 2 3 5 6 6 4 3 2 1 1
7 8 8 7 7 6 6 5 4 2 1 1 1 2 3 3 3 2 1 0 0 0 0 0 1 1 1 1 2 2 2 1 0 0 0 1 3 3 3 2 2 2 2
6 7 8 7 7 7 7 7 6 3 2 2 3 3 3 3 3 3 2 0 0 0 0 0 1 0 0 0 1 1 1 1 0 0 0 0 1 1 1 1 1 1 1
7 8 9 8 8 7 6 7 6 4 3 3 3 3 3 3 3 3 2 1 1 0 0 0 0 0 0 0 0 0 0 0 0 0 0 0 0 0 0 0 0 0 0
6 8 10 10 9 8 6 6 5 4 3 3 3 3 3 3 3 2 1 2 1 0 0 0 0 0 0 0 0 0 0 0 0 0 0 0 0 0 0 0 0 0 0
5 8 10 10 10 9 8 7 5 4 3 3 3 3 3 3 3 1 0 1 1 1 1 1 1 0 0 0 0 0 0 0 0 0 0 0 0 0 0 0 0 0 0
5 7 10 11 10 10 10 9 7 5 4 3 3 3 3 3 3 2 1 1 2 2 2 2 1 0 0 0 0 0 0 0 0 0 0 0 0 0 0 0 0 0 0
6 7 9 9 8 8 10 10 7 5 3 3 3 3 3 2 2 2 2 3 3 3 3 2 1 0 0 0 0 0 0 0 0 0 0 0 0 0 0 0 0 0 0
7 7 7 7 6 6 9 9 6 4 2 2 3 3 2 1 1 2 3 3 3 3 3 2 1 0 0 0 0 0 0 0 0 0 0 0 0 0 0 0 0 0 0
7 7 7 6 6 7 8 8 6 3 1 1 1 2 2 2 2 3 3 3 3 3 3 2 1 0 0 0 0 0 0 0 0 0 0 0 0 0 0 0 0 0 0
8 8 8 7 6 7 8 9 8 5 2 1 1 1 2 3 3 3 3 3 3 3 3 1 0 0 0 0 0 0 0 0 0 0 0 0 0 0 0 0 0 0 0
11 10 9 8 6 5 7 8 8 7 5 4 2 2 3 3 3 3 2 1 1 2 2 1 0 0 0 0 0 0 0 0 0 0 0 0 0 0 0 0 0 0 0
12 10 9 8 5 4 4 5 6 7 6 5 5 4 3 3 3 2 1 0 0 1 1 0 0 0 0 0 0 0 0 0 0 0 0 0 0 0 0 0 0 0 0
9 9 7 6 4 3 1 2 4 5 5 4 5 5 4 3 3 1 0 0 0 0 0 0 0 0 0 0 0 0 0 0 0 0 0 0 0 0 0 0 0 0 0
8 8 7 5 4 3 1 0 2 4 4 4 4 5 5 3 2 1 0 0 0 0 0 0 0 0 0 0 0 0 0 0 0 0 0 0 0 0 0 0 0 0 0
9 8 7 5 4 4 2 1 2 4 5 4 4 4 4 3 1 0 0 0 0 0 0 0 0 0 0 0 0 0 0 0 0 0 0 0 0 0 0 0 0 0 0
Wind_Speed
2 2 1 1 1 1 1 0 0 1 1 1 1 2 1 1 1 0 0 2 3 3 4 5 7 9 10 11 11 11 11 10 10 10 10 9 9 8 9 9 9 8 8
2 2 1 1 1 1 1 1 1 1 1 1 2 1 1 2 1 1 0 1 2 1 2 4 6 7 9 10 10 10 10 10 10 10 10 10 9 9 9 9 9 9 9
3 2 2 1 1 1 1 1 2 2 2 2 2 1 1 1 1 1 1 0 1 1 1 2 4 6 7 8 9 9 9 9 9 10 9 9 9 9 9 9 9 9 9
3 3 2 1 1 1 2 2 2 2 2 2 1 1 1 0 0 0 1 0 0 0 0 2 4 5 5 5 7 8 8 8 9 9 9 9 9 9 9 8 8 9 9
4 3 2 1 2 2 1 1 1 1 1 1 1 1 1 0 0 0 0 1 0 0 0 1 3 4 5 5 5 7 7 8 8 9 8 9 8 8 8 8 8 8 8
3 3 2 2 2 2 2 1 1 1 1 1 1 1 1 1 0 0 1 1 1 1 0 0 0 2 4 4 4 5 5 6 7 7 7 8 8 7 7 8 8 8 8
3 3 2 2 2 2 2 2 2 2 1 1 2 2 3 2 1 1 0 0 0 0 1 1 1 1 0 2 3 4 5 5 6 7 7 7 7 8 8 8 8 8 8
3 3 3 2 2 2 2 2 2 1 1 1 1 1 2 4 3 2 1 1 0 0 0 1 1 1 1 1 1 3 4 4 6 6 6 6 7 7 8 8 8 8 9
3 3 3 3 2 2 2 1 1 2 0 1 1 2 2 1 3 3 2 1 1 1 0 0 1 1 2 1 1 2 3 3 4 6 6 7 6 7 7 8 8 8 8
3 3 3 3 2 2 2 1 1 1 2 0 1 0 1 3 1 2 3 2 1 1 1 1 1 1 2 1 1 2 1 1 3 4 6 6 7 7 7 8 8 8 9
2 2 3 3 2 2 2 2 2 2 1 1 0 0 0 1 1 2 2 3 3 2 1 1 1 1 1 1 1 2 3 3 4 4 4 5 6 6 6 7 8 8 8
1 1 2 2 2 2 2 2 2 2 1 1 1 1 1 1 1 1 1 2 2 3 2 1 1 1 1 1 2 3 4 4 4 4 3 3 4 4 5 6 6 7 7
1 1 2 2 2 2 2 2 2 1 1 1 1 1 1 1 2 2 1 1 2 2 2 2 1 1 2 1 2 3 4 4 3 3 3 3 3 3 4 3 4 4 5
3 2 2 2 2 2 2 2 1 1 1 1 1 1 0 1 1 2 2 2 1 2 2 3 2 2 1 1 3 4 3 5 4 4 4 4 3 3 4 3 3 2 2
3 2 2 2 2 2 2 2 1 1 1 1 1 1 1 1 1 1 1 2 2 1 3 3 2 2 1 1 3 2 2 4 5 5 5 5 4 4 4 3 3 3 3
3 3 3 2 2 2 1 1 1 1 1 1 1 1 1 1 1 1 1 1 2 2 2 2 2 2 2 2 2 2 3 4 5 6 7 6 5 5 4 4 4 4 3
3 3 3 3 3 2 2 1 1 1 1 1 1 1 2 1 1 1 1 1 1 2 2 3 2 2 1 2 1 2 2 3 3 6 7 6 6 6 6 5 5 5 4
4 4 3 3 3 3 3 3 2 2 2 2 2 1 2 1 1 1 1 1 1 2 2 2 2 2 2 2 2 2 2 2 2 5 6 7 7 7 7 6 6 5 5
4 3 4 4 4 3 3 3 3 3 3 3 3 3 3 1 2 1 1 1 1 1 1 2 2 2 2 2 1 1 1 1 2 3 5 6 7 7 7 7 6 6 6
4 4 4 4 4 4 4 3 3 3 3 3 3 3 3 3 3 3 2 2 1 1 1 1 1 2 2 2 0 1 1 1 2 2 2 2 5 7 7 7 7 7 7
4 4 3 3 4 4 4 4 3 3 3 3 3 3 4 4 5 4 2 2 2 1 1 1 1 1 2 1 1 1 1 1 2 1 1 1 1 2 3 5 7 8 8
3 3 4 4 4 4 4 5 4 3 3 3 4 3 3 3 3 3 4 4 4 3 3 2 2 2 3 2 1 1 1 0 2 2 0 2 1 2 3 3 5 7 8
3 3 3 4 4 4 6 6 6 3 4 4 4 3 3 2 2 2 2 3 3 5 5 4 4 4 3 3 2 2 2 2 3 2 0 2 1 2 3 3 5 6 7
4 4 4 4 4 4 6 6 5 3 3 3 4 4 4 3 3 3 2 2 3 3 4 3 4 5 5 4 4 4 3 2 2 2 1 2 2 2 3 2 5 6 6
3 3 4 4 4 4 5 5 4 2 2 3 4 3 4 4 5 5 3 2 3 3 3 3 4 4 5 5 4 2 1 1 2 2 1 2 2 2 2 2 3 4 5
4 3 3 3 4 3 4 5 5 2 2 2 2 3 4 4 5 5 4 3 3 4 2 2 2 3 2 3 4 4 4 3 2 2 2 2 1 0 2 2 2 2 2
Wind_Direction
130 125 122 129 117 119 126 118 56 62 51 43 104 134 125 153 204 186 250 209 210 212 206 193 191 193 191 190 190 189 187 187 190 188 188 190 192 194 192 190 190 192 194
130 123 110 106 111 128 136 141 101 88 65 57 55 76 119 151 174 141 133 232 212 199 196 188 188 185 187 188 187 187 188 191 191 191 192 193 195 196 197 196 196 199 202
116 113 112 98 107 122 109 93 71 75 72 63 51 48 99 139 154 160 165 266 274 214 174 180 174 175 179 187 188 189 191 191 191 191 192 195 197 198 202 204 203 203 204
114 107 101 91 84 87 86 87 74 72 67 66 46 13 36 33 319 179 153 168 175 334 153 163 166 166 168 174 186 193 194 190 189 191 194 196 198 200 200 202 204 207 207
112 109 109 104 90 79 78 86 76 99 91 63 41 15 352 21 273 203 179 206 226 237 76 156 177 175 173 170 179 194 196 193 194 195 196 199 201 200 201 203 205 207 208
112 112 113 103 97 85 68 66 78 67 88 102 44 21 329 311 322 313 242 222 218 211 158 61 172 188 190 187 190 191 196 200 197 197 199 203 201 201 203 206 210 210 209
121 115 115 107 94 96 101 93 93 68 44 66 60 11 349 354 1 310 296 43 20 341 90 131 125 109 117 183 196 196 201 202 201 205 207 210 206 207 208 213 214 215 214
130 129 119 114 102 98 81 82 98 96 30 59 106 67 360 350 347 350 2 34 325 17 66 172 125 145 157 164 155 193 209 207 206 209 210 211 212 213 214 214 214 217 218
132 132 134 125 120 116 118 111 119 119 112 352 106 139 140 243 314 330 338 346 355 17 304 165 179 186 179 189 201 207 217 219 218 217 214 215 216 218 221 220 218 218 215
135 136 134 129 126 127 134 134 111 106 115 25 328 331 174 171 169 316 325 330 331 278 248 227 214 203 186 175 178 163 183 244 240 232 223 220 221 223 226 225 225 221 216
137 140 139 132 130 133 135 119 102 91 109 142 187 274 31 45 133 161 289 319 330 307 271 237 219 218 197 182 190 178 179 213 233 244 238 233 228 229 234 230 225 220 218
145 150 142 147 150 145 141 140 128 123 137 142 149 147 155 164 203 166 219 284 300 298 300 269 226 219 218 208 207 193 198 213 227 241 251 246 238 235 241 233 223 221 221
176 203 169 169 166 164 160 149 134 145 157 148 171 213 196 203 187 170 170 247 288 302 316 308 257 225 223 216 224 212 209 206 215 225 232 239 234 226 236 237 233 228 227
191 191 178 182 183 178 169 153 151 186 166 169 194 205 238 250 185 173 173 175 305 319 315 288 293 245 232 223 231 213 217 209 215 222 225 234 238 225 227 223 219 223 227
180 168 170 174 184 178 165 151 171 206 179 193 206 207 226 256 215 204 179 170 171 251 290 280 282 271 248 238 233 222 222 218 217 223 226 226 222 223 221 215 209 213 220
182 173 179 182 184 181 175 161 177 215 189 233 225 217 245 253 252 221 206 201 181 187 246 267 260 268 265 265 235 223 230 224 222 224 226 223 219 221 225 219 216 220 224
187 184 185 186 191 192 184 173 195 203 213 247 259 231 254 250 250 255 222 198 199 180 229 277 280 295 276 266 279 242 233 227 234 230 227 226 225 226 227 221 220 222 223
191 191 187 190 196 193 187 186 206 216 216 232 244 234 250 251 255 258 226 224 227 207 198 252 284 297 275 258 260 259 247 236 231 235 231 230 231 232 226 222 222 224 225
188 191 188 192 199 197 194 199 206 218 226 230 226 222 234 221 252 254 240 238 242 241 204 211 262 280 285 287 315 299 281 286 264 255 233 231 234 233 229 227 229 231 231
191 196 201 203 199 197 198 202 210 215 228 239 237 228 226 217 226 230 233 234 229 232 230 222 263 282 283 290 298 275 306 306 295 298 288 245 233 236 236 235 234 233 233
196 191 195 209 202 199 201 199 207 212 220 242 253 242 234 228 224 218 219 218 207 211 223 236 263 290 285 299 274 245 249 296 304 282 305 292 250 247 246 241 236 233 235
198 190 199 206 210 215 209 209 206 212 219 228 245 252 248 236 241 240 241 230 210 201 207 211 234 242 258 253 251 244 216 288 296 290 357 293 234 248 251 237 234 229 230
199 202 200 197 211 223 217 223 223 210 212 220 227 235 254 256 246 241 258 262 248 231 210 199 214 230 233 229 218 253 239 218 234 250 197 279 279 265 258 255 247 238 232
199 200 203 200 207 228 220 225 229 217 221 229 227 224 230 250 240 218 224 246 260 256 237 219 213 227 229 223 211 219 228 238 259 261 186 238 275 268 272 267 255 248 245
202 205 200 201 205 228 219 217 209 206 227 245 244 238 233 238 242 225 203 229 267 281 274 245 235 242 243 238 220 183 203 201 272 274 216 191 255 280 286 277 267 254 252
202 199 205 206 201 220 226 216 200 192 223 252 264 254 246 245 244 223 203 206 238 264 276 305 303 299 277 258 236 205 197 198 218 260 241 183 231 256 306 291 281 272 264